{"data":{"norad_id":52678,"epoch":"2026-09-19T22:39:24.611040Z","epoch_age_seconds":114490,"freshness":"FRESH","line1":"1 52678U 22053Y   26262.94403485  .00000576  00000+0  30327-4 0  9991","line2":"2 52678  53.1612 345.4129 0001062  81.6593 278.4528 15.31698642240587","mean_motion":15.31698642,"eccentricity":0.0001062,"inclination_deg":53.1612,"raan_deg":345.4129,"arg_perigee_deg":81.6593,"mean_anomaly_deg":278.4528,"bstar":3.0327e-5,"rev_number":24058,"period_min":94.013271312935,"perigee_km":470.01669218917,"apogee_km":471.47139452278,"semimajor_km":6848.881043356,"source":"CELESTRAK","updated_at":"2026-09-20T09:00:40.104414Z"}}